Flag for Austria Weather past 2 weeks in Knittelfeld, Styria, Austria

Now
39 °F

Light rain. Mostly cloudy.


Feels Like: 36 °F
Forecast: 29 / 47 °F
Wind: 5 mph from Southeast

Location: Zeltweg

Current Time: Mar 27, 2015 at 6:23:06 AM

Latest Report: Mar 27, 2015 at 5:50 AM


Visibility: 6 mi

Pressure: 29.80 "Hg

Humidity: 100%

Dew point: 39 °F

Location of KnittelfeldLocation

Historic Weather in Knittelfeld — Graph

°F

Knittelfeld temperature yesterday

Maximum temperature yesterday: 55 °F (at 3:50 PM)
Minimum temperature yesterday: 43 °F (at 3:50 AM)
Average temperature yesterday: 48 °F

Past Weeks' High & Low Weather Summary

 TemperatureHumidityPressure
High61 °F (Mar 21, 2:50 PM)100% (Mar 14, 5:50 AM)30.45 "Hg (Mar 14, 5:50 AM)
Low21 °F (Mar 14, 5:50 AM)23% (Mar 19, 4:50 PM)29.68 "Hg (Mar 25, 3:50 PM)
Average43 °F63%30.10 "Hg
* Reported Mar 12 4:50 AM — Mar 27 4:50 AM, Knittelfeld, Weather by CustomWeather, © 2015

Note: Actual official high and low records may vary slightly from our data, if they occured in-between our weather recording intervals... More about our weather records

Advertising

Knittelfeld weather history for previous 24 hours

 ConditionsComfort  
Time TempWeatherWind HumidityBarometerVisibility
4:50 AM
Fri, Mar 27
41 °FRain. Overcast.No wind93%29.80 "Hg5 mi
9:50 PM
Thu, Mar 26
45 °FPassing clouds.No wind93%29.74 "Hg6 mi
8:50 PM46 °FPassing clouds.No wind93%29.74 "Hg6 mi
7:50 PM46 °FPassing clouds.No wind93%29.74 "Hg6 mi
6:50 PM48 °FPassing clouds.5 mph87%29.74 "Hg12 mi
5:50 PM52 °FBroken clouds.6 mph77%29.74 "Hg19 mi
4:50 PM52 °FSprinkles. Broken clouds.9 mph77%29.71 "Hg19 mi
4:20 PM54 °FScattered clouds.9 mph72%29.71 "Hg19 mi
3:50 PM55 °FScattered clouds.8 mph67%29.71 "Hg19 mi
3:20 PM52 °FBroken clouds.5 mph77%29.74 "Hg12 mi
2:50 PM52 °FBroken clouds.2 mph82%29.74 "Hg12 mi
2:20 PM52 °FBroken clouds.2 mph77%29.74 "Hg12 mi
1:50 PM52 °FBroken clouds.2 mph77%29.74 "Hg12 mi
1:20 PM50 °FBroken clouds.2 mph82%29.74 "Hg12 mi
12:50 PM50 °FBroken clouds.2 mph82%29.77 "Hg12 mi
12:20 PM50 °FBroken clouds.2 mph82%29.77 "Hg9 mi
11:50 AM48 °FLight rain. Broken clouds.2 mph82%29.77 "Hg9 mi
11:20 AM48 °FLight rain. More clouds than sun.2 mph82%29.77 "Hg9 mi
10:50 AM48 °FLight rain. Broken clouds.2 mph76%29.77 "Hg9 mi
10:20 AM46 °FLight rain. Broken clouds.2 mph87%29.77 "Hg9 mi
9:50 AM46 °FPartly sunny.3 mph87%29.77 "Hg7 mi
9:20 AM46 °FPartly sunny.2 mph87%29.77 "Hg6 mi
8:50 AM46 °FLight rain. Partly sunny.1 mph87%29.77 "Hg6 mi
8:20 AM43 °FLight rain. Partly sunny.1 mph100%29.74 "Hg4 mi
7:50 AM43 °FLight rain. Broken clouds.2 mph93%29.74 "Hg4 mi
7:20 AM43 °FLight rain. Broken clouds.1 mph93%29.74 "Hg4 mi
6:50 AM43 °FLight rain. Broken clouds.1 mph93%29.74 "Hg4 mi
6:20 AM43 °FLight rain. Broken clouds.1 mph93%29.71 "Hg5 mi
Weather by CustomWeather, © 2015

See weather overviewHow to use our weather pages